NOAA 20

Last updated on Oct. 27, 2021, 12:02 a.m. UTC

1 43013U 17073A   21299.42586895  .00000041  00000-0  40175-4 0  9995
2 43013  98.7303 236.1230 0001115  68.3433 291.7862 14.19558236204022
UTC
Height (km)
Latitude
Longitude
Inclination
Orbital Period
UTC large
Height (km)
Speed (km/s)
/
Latitude / Longitude
Inclination (degrees)
Orbital Period (minutes)
Azimuth
Elevation
Range (km)
Doppler Factor
iOS Compass Heading
iOS Angle